DW7995 Weather Reports


Display with metric or nautical units.
time (UTC)temp
F
wind
direction
speed
MPH
gust
MPH
rain 1hr
in
rain 24hr
in
rain mn
in
humidity
%
barometer
mb
20260505221041 70 196 4.0 10.0 0.00 0.00 0.00 27 1021.2
20260505220539 70 243 4.0 14.0 0.00 0.00 0.00 27 1021.2
20260505220048 70 232 7.0 17.0 0.00 0.00 0.00 27 1021.2
20260505215539 70 212 6.0 17.0 0.00 0.00 0.00 27 1021.2
20260505215040 70 214 5.0 19.0 0.00 0.00 0.00 27 1021.2
20260505214545 70 219 7.0 19.0 0.00 0.00 0.00 27 1021.2
20260505214039 71 219 6.0 14.0 0.00 0.00 0.00 25 1021.2
20260505213539 71 184 4.0 13.0 0.00 0.00 0.00 26 1021.2
20260505213056 71 221 5.0 12.0 0.00 0.00 0.00 27 1021.2
20260505212540 71 215 6.0 12.0 0.00 0.00 0.00 27 1021.2
20260505212040 71 249 3.0 15.0 0.00 0.00 0.00 26 1021.2
20260505211548 71 195 6.0 15.0 0.00 0.00 0.00 27 1021.2
20260505211043 71 251 4.0 12.0 0.00 0.00 0.00 27 1021.2
20260505210539 71 0 4.0 16.0 0.00 0.00 0.00 28 1021.2
20260505210047 71 240 6.0 16.0 0.00 0.00 0.00 28 1021.2
20260505205540 71 263 7.0 18.0 0.00 0.00 0.00 28 1021.2
20260505205041 72 267 6.0 21.0 0.00 0.00 0.00 27 1021.2
20260505204555 72 210 8.0 21.0 0.00 0.00 0.00 28 1021.2
20260505204039 72 193 8.0 17.0 0.00 0.00 0.00 26 1021.2
20260505203539 73 246 7.0 17.0 0.00 0.00 0.00 27 1021.2
20260505203100 73 229 6.0 16.0 0.00 0.00 0.00 29 1021.2
20260505202540 73 187 6.0 16.0 0.00 0.00 0.00 27 1021.2
20260505202041 73 280 8.0 17.0 0.00 0.00 0.00 27 1021.2
20260505201548 73 216 8.0 17.0 0.00 0.00 0.00 26 1021.2
20260505201040 72 150 8.0 16.0 0.00 0.00 0.00 28 1021.2
20260505200540 72 200 6.0 16.0 0.00 0.00 0.00 28 1021.2
20260505200049 72 214 8.0 15.0 0.00 0.00 0.00 28 1021.2
20260505195544 71 260 7.0 16.0 0.00 0.00 0.00 29 1021.2
20260505195040 71 216 8.0 17.0 0.00 0.00 0.00 29 1021.2
20260505194546 71 223 8.0 17.0 0.00 0.00 0.00 30 1021.2
20260505194040 71 209 10.0 17.0 0.00 0.00 0.00 28 1021.2
20260505193541 72 209 8.0 18.0 0.00 0.00 0.00 28 1021.2
20260505193047 73 235 6.0 18.0 0.00 0.00 0.00 29 1021.2
20260505192541 72 248 5.0 14.0 0.00 0.00 0.00 30 1021.2
20260505192040 72 250 7.0 15.0 0.00 0.00 0.00 30 1021.2
20260505191608 72 262 7.0 15.0 0.00 0.00 0.00 30 1021.2
20260505191040 72 210 7.0 14.0 0.00 0.00 0.00 30 1021.2
20260505190542 72 232 6.0 14.0 0.00 0.00 0.00 28 1021.2
20260505190044 72 228 6.0 15.0 0.00 0.00 0.00 30 1021.2
20260505185540 72 259 5.0 15.0 0.00 0.00 0.00 30 1021.2
20260505185041 72 194 6.0 15.0 0.00 0.00 0.00 30 1021.2
20260505184546 72 238 8.0 18.0 0.00 0.00 0.00 29 1021.2
20260505184041 72 8 4.0 18.0 0.00 0.00 0.00 31 1021.2
20260505183539 72 212 5.0 18.0 0.00 0.00 0.00 31 1021.2
20260505183043 72 172 3.0 13.0 0.00 0.00 0.00 32 1021.2
20260505182542 71 258 7.0 13.0 0.00 0.00 0.00 32 1021.2
20260505182043 71 308 6.0 13.0 0.00 0.00 0.00 32 1021.2
20260505181549 71 225 7.0 13.0 0.00 0.00 0.00 31 1021.2
20260505181040 71 237 7.0 15.0 0.00 0.00 0.00 31 1021.2
20260505180539 70 210 5.0 15.0 0.00 0.00 0.00 32 1021.2
20260505175539 71 257 4.0 12.0 0.00 0.00 0.00 31 1021.2
20260505175039 71 223 7.0 12.0 0.00 0.00 0.00 32 1021.2
20260505174553 71 204 5.0 12.0 0.00 0.00 0.00 32 1021.2
20260505174041 70 264 6.0 12.0 0.00 0.00 0.00 31 1021.2
20260505173539 71 218 2.0 10.0 0.00 0.00 0.00 32 1021.2
20260505173047 70 115 3.0 10.0 0.00 0.00 0.00 33 1021.2
20260505172539 70 281 4.0 11.0 0.00 0.00 0.00 33 1021.2
20260505172040 70 322 4.0 11.0 0.00 0.00 0.00 34 1021.2
20260505171552 70 359 5.0 12.0 0.00 0.00 0.00 35 1021.2
20260505171040 69 145 4.0 12.0 0.00 0.00 0.00 34 1021.2
20260505170541 69 311 5.0 11.0 0.00 0.00 0.00 34 1021.2
20260505170052 69 153 2.0 14.0 0.00 0.00 0.00 35 1021.2
20260505165540 69 284 5.0 14.0 0.00 0.00 0.00 35 1021.2
20260505165040 68 295 3.0 11.0 0.00 0.00 0.00 35 1021.2
20260505164552 68 0 5.0 14.0 0.00 0.00 0.00 34 1021.2
20260505164041 67 0 3.0 14.0 0.00 0.00 0.00 36 1021.2
20260505163540 67 12 3.0 14.0 0.00 0.00 0.00 36 1021.2
20260505163049 67 240 4.0 14.0 0.00 0.00 0.00 35 1021.2
20260505162539 68 313 5.0 14.0 0.00 0.00 0.00 34 1021.2
20260505162039 68 286 3.0 11.0 0.00 0.00 0.00 36 1021.2
20260505161553 67 214 3.0 10.0 0.00 0.00 0.00 35 1021.2
20260505161040 67 290 4.0 10.0 0.00 0.00 0.00 35 1021.2
20260505160540 67 249 3.0 12.0 0.00 0.00 0.00 35 1021.2
20260505153054 65 206 2.0 14.0 0.00 0.00 0.00 37 1021.2
20260505152539 64 333 6.0 14.0 0.00 0.00 0.00 37 1021.2
20260505152042 64 252 3.0 10.0 0.00 0.00 0.00 36 1021.2
20260505151550 65 210 4.0 10.0 0.00 0.00 0.00 36 1021.2
20260505151043 65 141 2.0 9.0 0.00 0.00 0.00 36 1021.2
20260505150540 65 155 4.0 12.0 0.00 0.00 0.00 36 1021.2
20260505140539 62 281 2.0 9.0 0.00 0.00 0.00 38 1021.2
20260505125039 54 231 0.0 0.0 0.00 0.00 0.00 47 1021.2
20260505124546 54 0 0.0 3.0 0.00 0.00 0.00 49 1021.2
20260505124037 53 0 0.0 3.0 0.00 0.00 0.00 49 1021.2
20260505123538 50 0 0.0 3.0 0.00 0.00 0.00 54 1021.2
20260505123042 49 0 0.0 0.0 0.00 0.00 0.00 58 1021.2
20260505122538 49 0 0.0 0.0 0.00 0.00 0.00 58 1021.2
20260505122039 49 0 0.0 0.0 0.00 0.00 0.00 59 1021.2
20260505121549 49 0 0.0 0.0 0.00 0.00 0.00 58 1021.2
20260505121040 50 0 0.0 0.0 0.00 0.00 0.00 57 1021.2
20260505120540 50 0 0.0 0.0 0.00 0.00 0.00 55 1021.2
20260505120051 51 0 0.0 0.0 0.00 0.00 0.00 54 1021.2
20260505115539 51 0 0.0 0.0 0.00 0.00 0.00 54 1021.2
20260505115039 52 0 0.0 0.0 0.00 0.00 0.00 53 1021.2
20260505114544 53 0 0.0 0.0 0.00 0.00 0.00 51 1021.2
20260505114038 54 0 0.0 1.0 0.00 0.00 0.00 48 1021.2
20260505113538 56 0 0.0 3.0 0.00 0.00 0.00 47 1021.2
20260505113052 57 0 0.0 3.0 0.00 0.00 0.00 45 1021.2
20260505112538 56 0 0.0 0.0 0.00 0.00 0.00 46 1021.2
20260505112040 57 0 0.0 0.0 0.00 0.00 0.00 45 1021.2
20260505111548 58 0 0.0 0.0 0.00 0.00 0.00 42 1021.2
20260505111039 59 0 0.0 1.0 0.00 0.00 0.00 40 1021.2
20260505110540 60 0 0.0 2.0 0.00 0.00 0.00 40 1021.2
20260505102040 62 0 0.0 6.0 0.00 0.00 0.00 37 1021.2
20260505101604 62 154 2.0 6.0 0.00 0.00 0.00 36 1021.2
20260505101040 62 0 2.0 5.0 0.00 0.00 0.00 36 1021.2
20260505100541 62 0 0.0 5.0 0.00 0.00 0.00 36 1021.2
20260505095539 62 0 0.0 6.0 0.00 0.00 0.00 35 1021.2
20260505095039 62 195 2.0 4.0 0.00 0.00 0.00 35 1021.2
20260505094546 62 0 0.0 5.0 0.00 0.00 0.00 35 1021.2
20260505094040 63 0 0.0 5.0 0.00 0.00 0.00 35 1021.2
20260505093539 62 174 2.0 5.0 0.00 0.00 0.00 35 1021.2
20260505093048 63 0 0.0 4.0 0.00 0.00 0.00 35 1021.2
20260505092540 63 0 1.0 4.0 0.00 0.00 0.00 35 1021.2
20260505092039 62 191 0.0 5.0 0.00 0.00 0.00 35 1021.2
20260505091554 63 0 0.0 5.0 0.00 0.00 0.00 34 1021.2
20260505091040 63 142 0.0 6.0 0.00 0.00 0.00 34 1021.2
20260505090538 63 231 2.0 6.0 0.00 0.00 0.00 34 1021.2
20260505090051 64 0 2.0 6.0 0.00 0.00 0.00 33 1021.2
20260505085539 64 257 3.0 7.0 0.00 0.00 0.00 33 1021.2
20260505085040 64 257 2.0 7.0 0.00 0.00 0.00 33 1021.2
20260505084550 64 194 3.0 7.0 0.00 0.00 0.00 33 1021.2
20260505084038 63 234 2.0 6.0 0.00 0.00 0.00 34 1021.2
20260505083538 63 0 0.0 3.0 0.00 0.00 0.00 34 1021.2
20260505083050 62 0 0.0 2.0 0.00 0.00 0.00 34 1021.2
20260505082539 62 0 0.0 5.0 0.00 0.00 0.00 34 1021.2
20260505082039 63 0 0.0 5.0 0.00 0.00 0.00 34 1021.2
20260505081558 63 0 0.0 5.0 0.00 0.00 0.00 33 1021.2
20260505081039 62 224 1.0 5.0 0.00 0.00 0.00 33 1021.2
20260505080542 62 0 1.0 5.0 0.00 0.00 0.00 34 1021.2
20260505080059 62 202 1.0 4.0 0.00 0.00 0.00 34 1021.2
20260505075539 62 229 0.0 2.0 0.00 0.00 0.00 34 1021.2
20260505075040 62 0 0.0 3.0 0.00 0.00 0.00 34 1021.2
20260505074550 63 0 1.0 3.0 0.00 0.00 0.00 32 1021.2
20260505074040 64 240 0.0 4.0 0.00 0.00 0.00 32 1021.2
20260505073540 64 227 1.0 6.0 0.00 0.00 0.00 31 1021.2
20260505073049 65 225 2.0 6.0 0.00 0.00 0.00 31 1021.2
20260505072540 65 229 3.0 6.0 0.00 0.00 0.00 30 1021.2
20260505072039 65 194 2.0 6.0 0.00 0.00 0.00 30 1021.2
20260505071552 65 184 2.0 5.0 0.00 0.00 0.00 30 1021.2
20260505071039 65 238 2.0 6.0 0.00 0.00 0.00 30 1021.2
20260505070540 66 0 1.0 6.0 0.00 0.00 0.00 30 1021.2
20260505070057 65 0 2.0 6.0 0.00 0.00 0.00 30 1021.2
20260505065539 65 227 2.0 6.0 0.00 0.00 0.00 30 1021.2
20260505065038 65 271 0.0 5.0 0.00 0.00 0.00 31 1021.2
20260505064550 65 198 1.0 6.0 0.00 0.00 0.00 31 1021.2
20260505064039 65 219 0.0 6.0 0.00 0.00 0.00 31 1021.2
20260505063538 65 211 2.0 5.0 0.00 0.00 0.00 31 1021.2
20260505063050 64 0 1.0 3.0 0.00 0.00 0.00 32 1021.2
20260505062539 64 0 1.0 4.0 0.00 0.00 0.00 33 1021.2
20260505062038 63 0 0.0 4.0 0.00 0.00 0.00 33 1021.2
20260505061546 62 212 0.0 2.0 0.00 0.00 0.00 34 1021.2
20260505061037 61 0 0.0 2.0 0.00 0.00 0.00 36 1021.2
20260505060538 60 0 0.0 4.0 0.00 0.00 0.00 39 1021.2
20260505060050 57 0 0.0 4.0 0.00 0.00 0.00 42 1021.2
20260505055538 56 0 0.0 4.0 0.00 0.00 0.00 44 1021.2
20260505055040 55 0 0.0 0.0 0.00 0.00 0.00 47 1021.2
20260505054552 56 0 0.0 0.0 0.00 0.00 0.00 47 1021.2
20260505054039 56 0 0.0 0.0 0.00 0.00 0.00 45 1021.2
20260505053538 57 0 0.0 0.0 0.00 0.00 0.00 44 1021.2
20260505053051 58 0 0.0 0.0 0.00 0.00 0.00 42 1021.2
20260505052539 59 0 0.0 0.0 0.00 0.00 0.00 41 1021.2
20260505052039 60 0 0.0 0.0 0.00 0.00 0.00 39 1021.2
20260505051549 61 0 0.0 0.0 0.00 0.00 0.00 38 1021.2
20260505051039 63 0 0.0 0.0 0.00 0.00 0.00 35 1021.2
20260505050538 65 0 0.0 2.0 0.00 0.00 0.00 33 1021.2
20260505041543 59 0 0.0 2.0 0.00 0.00 0.00 41 1021.2
20260505041038 58 0 0.0 1.0 0.00 0.00 0.00 44 1021.2
20260505040538 56 0 0.0 0.0 0.00 0.00 0.00 48 1021.2
20260505040052 56 0 0.0 0.0 0.00 0.00 0.00 49 1021.2
20260505035538 56 0 0.0 0.0 0.00 0.01 0.00 49 1021.2
20260505035036 57 0 0.0 0.0 0.00 0.01 0.00 48 1021.2
20260505034548 57 0 0.0 0.0 0.00 0.01 0.00 47 1021.2
20260505034039 57 0 0.0 0.0 0.00 0.01 0.00 46 1021.2
20260505033539 58 0 0.0 0.0 0.00 0.01 0.00 47 1021.2
20260505033052 58 0 0.0 0.0 0.00 0.01 0.00 45 1021.2
20260505032540 58 0 0.0 0.0 0.00 0.01 0.00 44 1021.2
20260505032038 59 0 0.0 0.0 0.00 0.01 0.00 45 1021.2
20260505031555 59 0 0.0 0.0 0.00 0.01 0.00 43 1021.2
20260505031038 60 0 0.0 0.0 0.00 0.01 0.00 42 1021.2
20260505030540 61 0 0.0 0.0 0.00 0.01 0.00 40 1021.2
20260505030052 62 0 0.0 0.0 0.00 0.01 0.00 39 1021.2
20260505025538 63 0 0.0 0.0 0.00 0.01 0.00 39 1021.2
20260505025039 64 0 0.0 0.0 0.00 0.01 0.00 35 1021.2
20260505024541 65 0 0.0 0.0 0.00 0.01 0.00 32 1021.2
20260505024040 66 0 0.0 1.0 0.00 0.01 0.00 32 1021.2
20260505023540 67 0 0.0 2.0 0.00 0.01 0.00 30 1021.2
20260505023050 67 0 0.0 2.0 0.00 0.01 0.00 29 1021.2
20260505022540 68 0 0.0 5.0 0.00 0.01 0.00 28 1021.2
20260505022040 69 0 0.0 5.0 0.00 0.01 0.00 27 1021.2
20260505021547 69 0 1.0 5.0 0.00 0.01 0.00 27 1021.2
20260505021038 69 0 0.0 5.0 0.00 0.01 0.00 27 1021.2
20260505020538 70 0 0.0 5.0 0.00 0.01 0.00 26 1021.2
20260505020049 70 0 1.0 5.0 0.00 0.01 0.00 27 1021.2
20260505015538 70 165 0.0 8.0 0.00 0.01 0.00 26 1021.2
20260505015039 70 0 0.0 8.0 0.00 0.01 0.00 26 1021.2
20260505014551 70 251 2.0 7.0 0.00 0.01 0.00 26 1021.2
20260505014038 71 0 1.0 6.0 0.00 0.01 0.00 26 1021.2
20260505013538 71 219 2.0 6.0 0.00 0.01 0.00 25 1021.2
20260505013043 71 243 1.0 5.0 0.00 0.01 0.00 25 1021.2
20260505012538 71 0 0.0 4.0 0.00 0.01 0.00 26 1021.2
20260505012038 71 285 1.0 7.0 0.00 0.01 0.00 25 1021.2
20260505011552 72 0 1.0 7.0 0.00 0.01 0.00 25 1021.2
20260505011040 72 213 2.0 9.0 0.00 0.01 0.00 24 1021.2
20260505010539 72 0 0.0 9.0 0.00 0.01 0.00 25 1021.2
20260505010109 72 259 2.0 11.0 0.00 0.01 0.00 25 1021.2
20260505005543 72 254 5.0 11.0 0.00 0.01 0.00 24 1021.2
20260505005038 73 268 4.0 8.0 0.00 0.01 0.00 24 1021.2
20260505004548 73 238 2.0 8.0 0.00 0.01 0.00 24 1021.2
20260505004039 73 228 2.0 9.0 0.00 0.01 0.00 24 1021.2
20260505003539 73 271 2.0 12.0 0.00 0.01 0.00 24 1021.2
20260505003048 73 0 2.0 13.0 0.00 0.01 0.00 24 1021.2
20260505002538 73 216 5.0 13.0 0.00 0.01 0.00 24 1021.2
20260505002035 74 248 4.0 13.0 0.00 0.01 0.00 24 1021.2
20260505001546 74 276 4.0 13.0 0.00 0.01 0.00 23 1021.2
20260505001038 74 262 2.0 13.0 0.00 0.01 0.00 23 1021.2
20260505000538 74 233 1.0 9.0 0.00 0.01 0.00 23 1021.2
20260505000052 74 255 0.0 9.0 0.00 0.01 0.00 23 1021.2
20260504235538 74 0 2.0 9.0 0.00 0.01 0.00 23 1021.2
20260504235041 74 0 2.0 12.0 0.00 0.01 0.00 22 1021.2
20260504234551 75 0 4.0 12.0 0.00 0.01 0.00 22 1021.2
20260504234037 76 284 2.0 15.0 0.00 0.01 0.00 21 1021.2
20260504233538 75 336 3.0 15.0 0.00 0.01 0.00 22 1021.2
20260504233055 75 288 4.0 15.0 0.00 0.01 0.00 21 1021.2
20260504232538 76 286 4.0 15.0 0.00 0.01 0.00 21 1021.2
20260504232038 76 200 5.0 12.0 0.00 0.01 0.00 20 1021.2
20260504231548 76 228 4.0 11.0 0.00 0.01 0.00 21 1021.2
20260504231038 76 290 3.0 10.0 0.00 0.01 0.00 21 1021.2
20260504230542 75 0 3.0 11.0 0.00 0.01 0.00 21 1021.2
20260504230049 76 177 4.0 14.0 0.00 0.01 0.00 20 1021.2
20260504225539 76 307 4.0 15.0 0.00 0.01 0.00 20 1021.2
20260504225038 77 267 4.0 15.0 0.00 0.01 0.00 19 1021.2
20260504224544 77 265 6.0 14.0 0.00 0.01 0.00 19 1021.2
20260504224038 77 203 6.0 17.0 0.00 0.01 0.00 20 1021.2
20260504223541 77 264 1.0 17.0 0.00 0.01 0.00 21 1021.2
20260504223100 76 226 6.0 17.0 0.00 0.01 0.00 21 1021.2
20260504222538 76 225 4.0 12.0 0.00 0.01 0.00 23 1021.2
20260504222037 76 281 4.0 12.0 0.00 0.01 0.00 24 1021.2
20260504221602 76 262 4.0 14.0 0.00 0.01 0.00 22 1021.2